STARLINK-32270, 60364

Orbit data source: Space-Track

STARLINK-32270, 60364 is a payload satellite owned by SpaceX/Seattle (US) in LEO that was launched on Sun, 04 Aug 2024 UTC via an FALCON 9 launch vehicle from the Air Force Western Test Range (AFWTR). Payload-class satellites include a variety of spacecraft equipped with specific instruments for various scientific and technological missions. These include communications satellites like Starlink; space stations such as the ISS; scientific satellites like the Hubble; Earth observation satellites from companies like Planet Labs, Umbra, and HawkEye 360; GPS; miniature CubeSats for education and research; and military/defense satellites.

Loading next visibility...
Identifier
60364, 2024-138K
Orbit
LEO
Country
Flag of USUS
Related business
Manufacturer
SpaceX/Seattle
Mission
Operational Commercial Communications
Bus & Motor
STARLINK V2M, Unknown motor
Mass
730 kg wet, ~700 kg dry
Launch date (UTC)
2024-08-04 (2 years ago)
Launch vehicle
FALCON 9
Launch site
Air Force Western Test Range (AFWTR)
Object type
Payload
Rocket body
Debris
Shape & HBR
Box + 2 Pan, 17.7 m
Radar Cross Section
33.884 m², Large (>1 m²)

Expand to show TLE details & history
Last TLE update: 15 hours ago

TLE from 15 hours ago
0 STARLINK-32270
1 60364U 24138K   26258.11720808  .00001534  00000-0  61177-4 0  9996
2 60364  53.1598 148.7524 0001404  96.4296 263.6866 15.31708017119548
Epoch: 2026-09-15T02:48Z
TLE epoch observation values (Epoch: 2026-09-15T02:48:46.778Z)
Latitude
0.00005°
Longitude
112.46977°
Altitude
471.722 km
Speed
7.631 km/s
True Right ascension
09h 55m 00s
True Declination
0° 00' 00"
Sunlit
Object was in daylight at epoch
Visualization orbit readout
Latitude
Unknown
Longitude
Unknown
Altitude
Unknown
Speed
Unknown
Apparent Right ascension
Unknown
Apparent Declination
Unknown
Sunlit
N/A
Visualization observer readout
Local Sidereal Time
10:23:07
Azimuth
Unknown
Elevation
Unknown
Doppler factor
Unknown
Orbital elements
Apogee altitude
471.934 km
Perigee altitude
470.011 km
Semi-major axis
6,849.11 km
Eccentricity
0.00014
Inclination
53.1598°
RAAN
148.7524°
Arg. of periapsis
96.4296°
True anomaly
263.67061°
Mean anomaly
263.6866°
Eccentric anomaly
263.6786°
Mean motion
3.82906 °/min
Orbital period
94.02 mins
BSTAR
0.000061177
Loading maneuver chart data...
Computing Atmospheric mass density...
Loading historical data...
Loading historical data...
Loading historical data...
Loading historical data...
Loading historical data...
Loading historical data...
Loading historical data...

Documentation

Showing up to 5 results
|